Fargo, ND

3:51 PM CST on December 07, 2019 (GMT -0600)
Hector International

Weather History for KFAR - October, 2019

Change the Weather History Date:

Thursday, October 10, 2019

  Actual Average Record
Temperature  
Mean Temperature 36 °F 48 °F  
Max Temperature 39 °F 59 °F 86 °F (2003)
Min Temperature 33 °F 38 °F 16 °F (1987)
Degree Days  
Heating Degree Days 28 17  
Month to date heating degree days 171 149  
Since 1 July heating degree days 386 419  
Cooling Degree Days 0 0  
Month to date cooling degree days 0 0  
Year to date cooling degree days 527 548  
Moisture  
Dew Point 36 °F    
Average Humidity 96    
Maximum Humidity 100    
Minimum Humidity 92    
Precipitation  
Precipitation 0.97 in 0.07 in 1.19 in (1949)
Month to date precipitation 2.45 0.80  
Year to date precipitation 27.15 19.40  
Snow  
Snow T in 0.00 in 2.50 in (1935)
Month to date snowfall T 0.1  
Since 1 July snowfall T 0.1  
Since 1 September snowfall T 0.1  
Snow Depth 0.00 in    
Sea Level Pressure  
Sea Level Pressure 29.92 in    
Wind  
Wind Speed 17 mph ()    
Max Wind Speed 26 mph    
Max Gust Speed 36 mph    
Visibility 5.8 miles    
Events Rain , Snow    
T = Trace of Precipitation, MM = Missing Value Source: Averaged Metar Reports

Daily Weather History Graph

Daily Weather History Graph

Search for Another Location

Airport or City:

Astronomy

Oct. 10, 2019 Rise Set
Actual Time 7:37 AM CDT 6:49 PM CDT
Civil Twilight 7:07 AM CDT 7:20 PM CDT
Nautical Twilight 6:32 AM CDT 7:55 PM CDT
Astronomical Twilight 5:56 AM CDT 8:30 PM CDT
Moon 6:07 PM CDT (10/10) 4:04 AM CDT (10/10)
Length of Visible Light 12h 12m
Length of Day
11h 11m
Waxing Gibbous, 91% of the Moon is Illuminated
Oct 10
Waxing Gibbous
Oct 13
Full
Oct 21
Last Quarter
Oct 27
New
Nov 4
First Quarter

Hourly Weather History & Observations

Time (CDT) Temp. Windchill Dew Point Humidity Pressure Visibility Wind Dir Wind Speed Gust Speed Precip Events Conditions
12:23 AM 39.9 °F 30.8 °F 39.0 °F 97% 29.95 in 4.0 mi North 18.4 mph 25.3 mph 0.02 in Rain Light Rain
12:41 AM 39.9 °F 31.8 °F 37.9 °F 93% 29.96 in 6.0 mi North 15.0 mph 33.4 mph 0.03 in Rain Light Rain
12:53 AM 39.9 °F 31.4 °F 39.0 °F 97% 29.97 in 7.0 mi NNW 16.1 mph - 0.04 in Rain Light Rain
1:35 AM 39.0 °F 29.6 °F 37.9 °F 96% 29.96 in 5.0 mi North 18.4 mph 28.8 mph 0.00 in Rain Light Rain
1:46 AM 39.0 °F 29.3 °F 37.9 °F 96% 29.96 in 5.0 mi North 19.6 mph 33.4 mph 0.00 in Rain Light Rain
1:53 AM 39.0 °F 30.6 °F 37.9 °F 96% 29.98 in 6.0 mi North 15.0 mph 28.8 mph 0.01 in Rain Light Rain
2:06 AM 39.0 °F 29.6 °F 37.0 °F 93% 29.96 in 9.0 mi North 18.4 mph 27.6 mph 0.00 in Rain Light Rain
2:13 AM 39.0 °F 30.3 °F 37.9 °F 96% 29.96 in 10.0 mi North 16.1 mph 27.6 mph 0.00 in Rain Light Rain
2:23 AM 39.0 °F 30.3 °F 37.9 °F 96% 29.96 in 8.0 mi North 16.1 mph 23.0 mph 0.00 in   Overcast
2:53 AM 39.0 °F 29.3 °F 37.0 °F 93% 29.98 in 3.0 mi North 19.6 mph 28.8 mph 0.03 in Rain Heavy Rain
3:13 AM 39.0 °F 30.3 °F 37.0 °F 93% 29.96 in 10.0 mi North 16.1 mph 25.3 mph 0.03 in Rain Light Rain
3:53 AM 37.9 °F 28.5 °F 37.0 °F 97% 29.97 in 10.0 mi North 17.3 mph 25.3 mph 0.04 in Rain Light Rain
4:15 AM 37.9 °F 28.9 °F 37.0 °F 97% 29.95 in 4.0 mi North 16.1 mph 25.3 mph 0.00 in Snow Light Snow
4:28 AM 37.9 °F 28.2 °F 37.0 °F 97% 29.94 in 3.0 mi North 18.4 mph 26.5 mph 0.01 in Snow Light Snow
4:53 AM 37.9 °F 28.9 °F 37.0 °F 97% 29.96 in 5.0 mi North 16.1 mph - 0.01 in Rain Light Rain
5:53 AM 37.9 °F 28.2 °F 37.0 °F 97% 29.95 in 8.0 mi North 18.4 mph 25.3 mph 0.00 in Rain Light Rain
6:53 AM 37.0 °F 28.5 °F 36.0 °F 96% 29.96 in 9.0 mi North 13.8 mph 26.5 mph 0.00 in   Overcast
7:53 AM 37.0 °F 26.7 °F 36.0 °F 96% 29.94 in 4.0 mi North 19.6 mph 25.3 mph 0.00 in   Overcast
8:35 AM 36.0 °F 25.6 °F 36.0 °F 100% 29.91 in 1.8 mi North 18.4 mph - 0.01 in Snow Light Snow
8:53 AM 37.0 °F 27.7 °F 36.0 °F 96% 29.93 in 1.8 mi North 16.1 mph 25.3 mph 0.01 in   Overcast
9:30 AM 37.0 °F 28.1 °F 36.0 °F 96% 29.97 in 1.2 mi WNW 15.0 mph - 0.03 in Rain Rain
9:42 AM 36.0 °F 25.6 °F 36.0 °F 100% 29.95 in 2.0 mi NW 18.4 mph - 0.04 in Rain Light Rain
9:53 AM 36.0 °F 26.3 °F 35.1 °F 97% 29.98 in 3.0 mi NW 16.1 mph 26.5 mph 0.05 in Rain Light Rain
10:10 AM 36.0 °F 25.6 °F 35.1 °F 97% 29.93 in 8.0 mi NNW 18.4 mph 29.9 mph 0.01 in   Overcast
10:53 AM 36.0 °F 24.4 °F 35.1 °F 97% 29.96 in 10.0 mi NNW 23.0 mph 33.4 mph 0.01 in   Overcast
11:19 AM 36.0 °F 25.3 °F 35.1 °F 97% 29.91 in 3.0 mi North 19.6 mph 28.8 mph 0.02 in Rain Heavy Rain
11:46 AM 36.0 °F 25.0 °F 35.1 °F 97% 29.91 in 6.0 mi North 20.7 mph 29.9 mph 0.05 in Rain Light Rain
11:53 AM 36.0 °F 25.3 °F 35.1 °F 97% 29.94 in 6.0 mi North 19.6 mph 27.6 mph 0.06 in Rain Rain
12:08 PM 36.0 °F 25.6 °F 35.1 °F 97% 29.90 in 3.0 mi North 18.4 mph 29.9 mph 0.05 in Rain Heavy Rain
12:15 PM 36.0 °F 25.3 °F 35.1 °F 97% 29.90 in 2.5 mi North 19.6 mph 29.9 mph 0.08 in Rain Rain
12:53 PM 37.0 °F 27.0 °F 35.1 °F 93% 29.94 in 8.0 mi NNW 18.4 mph - 0.12 in Rain Light Rain
1:42 PM 37.0 °F 27.0 °F 35.1 °F 93% 29.87 in 6.0 mi North 18.4 mph 28.8 mph 0.03 in Snow Light Snow
2:53 PM 36.0 °F 24.7 °F 35.1 °F 97% 29.88 in 3.0 mi NNW 21.9 mph 31.1 mph 0.07 in Rain Rain
3:09 PM 36.0 °F 26.0 °F 35.1 °F 97% 29.85 in 5.0 mi NNW 17.3 mph 29.9 mph 0.05 in Rain Rain
3:18 PM 36.0 °F 25.6 °F 35.1 °F 97% 29.85 in 6.0 mi NNW 18.4 mph 28.8 mph 0.07 in Rain Rain
3:53 PM 36.0 °F 25.0 °F 34.0 °F 93% 29.90 in 6.0 mi NNW 20.7 mph 28.8 mph 0.14 in Rain Rain
4:06 PM 36.0 °F 24.7 °F 34.0 °F 93% 29.85 in 6.0 mi NNW 21.9 mph 29.9 mph 0.02 in Rain Rain
4:53 PM 35.1 °F 25.5 °F 34.0 °F 96% 29.89 in 4.0 mi NNW 15.0 mph 25.3 mph 0.14 in Rain Rain
5:18 PM 35.1 °F 24.1 °F 34.0 °F 96% 29.83 in 3.0 mi NNW 19.6 mph - 0.12 in Rain Heavy Rain
5:53 PM 35.1 °F 24.1 °F 34.0 °F 96% 29.88 in 10.0 mi NNW 19.6 mph 33.4 mph 0.18 in Rain Light Rain
6:53 PM 35.1 °F 24.1 °F 33.1 °F 92% 29.88 in 10.0 mi NNW 19.6 mph 31.1 mph 0.02 in   Overcast
7:42 PM 34.0 °F 22.4 °F 32.0 °F 92% 29.84 in 10.0 mi NNW 20.7 mph - 0.00 in   Overcast
7:53 PM 34.0 °F 22.7 °F 32.0 °F 92% 29.87 in 10.0 mi NNW 19.6 mph 32.2 mph 0.00 in   Overcast
8:53 PM 34.0 °F 22.1 °F 32.0 °F 92% 29.86 in 8.0 mi NNW 21.9 mph 33.4 mph N/A   Overcast
9:53 PM 33.1 °F 20.9 °F 32.0 °F 96% 29.85 in 3.0 mi NNW 21.9 mph 32.2 mph 0.00 in Rain Light Rain
10:53 PM 33.1 °F 21.5 °F 32.0 °F 96% 29.84 in 4.0 mi NNW 19.6 mph 31.1 mph 0.00 in Rain Light Rain
11:53 PM 33.1 °F 21.2 °F 32.0 °F 96% 29.81 in 5.0 mi NNW 20.7 mph 28.8 mph 0.04 in Rain Light Rain